sat.trackr.live / text

‹ back to catalog

STARLINK-32603

NORAD 62072 · 2024-217R

PAYLOAD ACTIVE UNKNOWN

§ Identity

Operator
Country
US
Launch date
2024-11-24
Launch site
AFWTR
Launch vehicle
Mass (kg)
RCS (m²)

Purposes: comms

External: N2YO · Heavens-Above · Gunter

§ Orbital elements

Epoch: 2026-05-24T13:07:06.632256Z

Period
94.05 min
Inclination
53.1592°
Eccentricity
0.0001303
Mean motion
15.31076440 rev/d
Perigee alt
471.7 km
Apogee alt
473.5 km
Semi-major
6,850.7 km
B*
1.3724e-2
RAAN
201.6702°
Arg perigee
117.2014°
Mean anomaly
242.9121°
Rev number
8,508

§ Raw data

STARLINK-326031 62072U 24217R   26144.54660454  .00443081  00000+0  13724-1 0  99912 62072  53.1592 201.6702 0001303 117.2014 242.9121 15.31076440 85088

JSON: /api/v1/satellites/62072 · /tle

For live sub-satellite position, see the globe view (requires WebGL).

§ Visibility from observer

Set your observer location to see the next 7 days of passes ≥ 10°. The values pass through the URL so the page stays shareable.

No JS? Fill the form by hand. The geolocation button needs JavaScript.